Hourly Weather Molepolole

Today, 7 August, Friday

Time Temperature Precipitation Wind Pressure Humidity
00:00 +9°C° 0 mm 3 mps 667 mmHg 38%
01:00 +8°C° 0 mm 3 mps 667 mmHg 37%
02:00 +7°C° 0 mm 3 mps 667 mmHg 35%
03:00 +7°C° 0 mm 3 mps 667 mmHg 35%
04:00 +5°C° 0 mm 3 mps 667 mmHg 36%
05:00 +5°C° 0 mm 3 mps 667 mmHg 36%
06:00 +5°C° 0 mm 3 mps 667 mmHg 35%
07:00 +7°C° 0 mm 3 mps 668 mmHg 35%
08:00 +8°C° 0 mm 3 mps 668 mmHg 30%
09:00 +11°C° 0 mm 4 mps 669 mmHg 25%
10:00 +15°C° 0 mm 4 mps 670 mmHg 21%
11:00 +19°C° 0 mm 5 mps 670 mmHg 16%
12:00 +21°C° 0 mm 5 mps 670 mmHg 15%
13:00 +22°C° 0 mm 5 mps 669 mmHg 15%
14:00 +25°C° 0 mm 5 mps 669 mmHg 15%
15:00 +25°C° 0 mm 5 mps 669 mmHg 17%
16:00 +25°C° 0 mm 5 mps 669 mmHg 20%
17:00 +25°C° 0 mm 5 mps 669 mmHg 22%
18:00 +21°C° 0 mm 6 mps 669 mmHg 35%
19:00 +17°C° 0 mm 7 mps 669 mmHg 48%
20:00 +15°C° 0 mm 8 mps 669 mmHg 62%
21:00 +13°C° 0 mm 8 mps 669 mmHg 66%
22:00 +11°C° 0 mm 7 mps 670 mmHg 70%
23:00 +10°C° 0 mm 6 mps 670 mmHg 75%

Tomorrow, 8 August, Saturday

Time Temperature Precipitation Wind Pressure Humidity
00:00 +9°C° 0 mm 6 mps 670 mmHg 77%
01:00 +8°C° 0 mm 6 mps 669 mmHg 79%
02:00 +7°C° 0 mm 5 mps 669 mmHg 82%
03:00 +7°C° 0 mm 5 mps 669 mmHg 83%
04:00 +6°C° 0 mm 5 mps 669 mmHg 85%
05:00 +5°C° 0 mm 4 mps 669 mmHg 86%
06:00 +6°C° 0 mm 5 mps 669 mmHg 83%
07:00 +7°C° 0 mm 6 mps 670 mmHg 81%
08:00 +8°C° 0 mm 7 mps 671 mmHg 78%
09:00 +10°C° 0 mm 7 mps 671 mmHg 70%
10:00 +12°C° 0 mm 7 mps 671 mmHg 62%
11:00 +14°C° 0 mm 7 mps 671 mmHg 54%
12:00 +17°C° 0 mm 7 mps 671 mmHg 47%
13:00 +20°C° 0 mm 7 mps 670 mmHg 39%
14:00 +22°C° 0 mm 6 mps 670 mmHg 32%
15:00 +22°C° 0 mm 6 mps 669 mmHg 32%
16:00 +21°C° 0 mm 6 mps 669 mmHg 32%
17:00 +21°C° 0 mm 5 mps 668 mmHg 33%
18:00 +19°C° 0 mm 5 mps 668 mmHg 40%
19:00 +15°C° 0 mm 4 mps 667 mmHg 48%
20:00 +12°C° 0 mm 4 mps 667 mmHg 56%
21:00 +11°C° 0 mm 4 mps 667 mmHg 62%
22:00 +10°C° 0 mm 3 mps 667 mmHg 67%
23:00 +9°C° 0 mm 3 mps 667 mmHg 73%

Day after tomorrow, 9 August, Sunday

Time Temperature Precipitation Wind Pressure Humidity
00:00 +9°C° 0 mm 3 mps 667 mmHg 76%
01:00 +8°C° 0 mm 3 mps 666 mmHg 78%
02:00 +8°C° 0 mm 3 mps 666 mmHg 81%
03:00 +7°C° 0 mm 3 mps 665 mmHg 83%
04:00 +7°C° 0 mm 2 mps 665 mmHg 85%
05:00 +6°C° 0 mm 2 mps 664 mmHg 88%
06:00 +7°C° 0 mm 2 mps 665 mmHg 83%
07:00 +8°C° 0 mm 2 mps 665 mmHg 79%
08:00 +9°C° 0 mm 2 mps 666 mmHg 74%
09:00 +14°C° 0 mm 2 mps 666 mmHg 61%
10:00 +18°C° 0 mm 3 mps 667 mmHg 47%
11:00 +22°C° 0 mm 3 mps 668 mmHg 33%
12:00 +25°C° 0 mm 4 mps 668 mmHg 28%
13:00 +27°C° 0 mm 5 mps 667 mmHg 23%
14:00 +29°C° 0 mm 5 mps 666 mmHg 17%
15:00 +28°C° 0 mm 5 mps 666 mmHg 17%
16:00 +28°C° 0 mm 5 mps 666 mmHg 17%
17:00 +27°C° 0 mm 5 mps 665 mmHg 16%
18:00 +23°C° 0 mm 4 mps 665 mmHg 21%
19:00 +20°C° 0 mm 3 mps 664 mmHg 25%
20:00 +17°C° 0 mm 2 mps 664 mmHg 29%
21:00 +16°C° 0 mm 3 mps 664 mmHg 28%
22:00 +14°C° 0 mm 3 mps 665 mmHg 26%
23:00 +13°C° 0 mm 4 mps 665 mmHg 25%

10 August, Monday

Time Temperature Precipitation Wind Pressure Humidity
00:00 +12°C° 0 mm 4 mps 664 mmHg 24%
01:00 +11°C° 0 mm 4 mps 664 mmHg 23%
02:00 +10°C° 0 mm 3 mps 664 mmHg 22%
03:00 +9°C° 0 mm 3 mps 664 mmHg 22%
04:00 +9°C° 0 mm 3 mps 664 mmHg 22%
05:00 +8°C° 0 mm 3 mps 664 mmHg 22%
06:00 +9°C° 0 mm 3 mps 664 mmHg 22%
07:00 +9°C° 0 mm 2 mps 665 mmHg 21%
08:00 +10°C° 0 mm 2 mps 665 mmHg 20%
09:00 +14°C° 0 mm 2 mps 666 mmHg 16%
10:00 +18°C° 0 mm 2 mps 667 mmHg 13%
11:00 +22°C° 0 mm 1 mps 668 mmHg 9%
12:00 +24°C° 0 mm 1 mps 667 mmHg 7%
13:00 +26°C° 0 mm 1 mps 667 mmHg 6%
14:00 +28°C° 0 mm 2 mps 666 mmHg 5%
15:00 +28°C° 0 mm 2 mps 666 mmHg 5%
16:00 +27°C° 0 mm 2 mps 666 mmHg 6%
17:00 +27°C° 0 mm 2 mps 666 mmHg 6%
18:00 +24°C° 0 mm 2 mps 665 mmHg 9%
19:00 +19°C° 0 mm 2 mps 665 mmHg 12%
20:00 +16°C° 0 mm 2 mps 664 mmHg 15%
21:00 +15°C° 0 mm 2 mps 665 mmHg 15%
22:00 +14°C° 0 mm 2 mps 665 mmHg 16%
23:00 +13°C° 0 mm 2 mps 665 mmHg 17%

11 August, Tuesday

Time Temperature Precipitation Wind Pressure Humidity
00:00 +12°C° 0 mm 2 mps 664 mmHg 20%
01:00 +12°C° 0 mm 1 mps 664 mmHg 22%
02:00 +11°C° 0 mm 1 mps 664 mmHg 24%
03:00 +10°C° 0 mm 2 mps 664 mmHg 23%
04:00 +9°C° 0 mm 2 mps 664 mmHg 22%
05:00 +9°C° 0 mm 3 mps 664 mmHg 20%
06:00 +10°C° 0 mm 3 mps 664 mmHg 26%
07:00 +10°C° 0 mm 4 mps 665 mmHg 33%
08:00 +11°C° 0 mm 4 mps 666 mmHg 39%
09:00 +14°C° 0 mm 4 mps 667 mmHg 37%
10:00 +19°C° 0 mm 5 mps 667 mmHg 36%
11:00 +23°C° 0 mm 5 mps 668 mmHg 34%
12:00 +25°C° 0 mm 5 mps 668 mmHg 27%
13:00 +27°C° 0 mm 5 mps 667 mmHg 21%
14:00 +29°C° 0 mm 5 mps 667 mmHg 15%
15:00 +29°C° 0 mm 4 mps 666 mmHg 14%
16:00 +29°C° 0 mm 4 mps 666 mmHg 13%
17:00 +29°C° 0 mm 4 mps 665 mmHg 12%
18:00 +26°C° 0 mm 3 mps 665 mmHg 17%
19:00 +21°C° 0 mm 2 mps 664 mmHg 22%
20:00 +18°C° 0 mm 2 mps 664 mmHg 27%
21:00 +16°C° 0 mm 2 mps 664 mmHg 31%
22:00 +15°C° 0 mm 2 mps 664 mmHg 36%
23:00 +14°C° 0 mm 2 mps 664 mmHg 41%

12 August, Wednesday

Time Temperature Precipitation Wind Pressure Humidity
00:00 +13°C° 0 mm 2 mps 664 mmHg 41%
01:00 +12°C° 0 mm 1 mps 664 mmHg 42%
02:00 +11°C° 0 mm 1 mps 663 mmHg 42%
03:00 +11°C° 0 mm 1 mps 664 mmHg 42%
04:00 +10°C° 0 mm 2 mps 664 mmHg 41%
05:00 +10°C° 0 mm 2 mps 664 mmHg 40%
06:00 +12°C° 0 mm 2 mps 665 mmHg 39%
07:00 +13°C° 0 mm 2 mps 666 mmHg 37%
08:00 +14°C° 0 mm 1 mps 666 mmHg 35%
09:00 +18°C° 0 mm 1 mps 667 mmHg 30%
10:00 +21°C° 0 mm 1 mps 668 mmHg 24%
11:00 +24°C° 0 mm 1 mps 669 mmHg 18%
12:00 +26°C° 0 mm 1 mps 668 mmHg 15%
13:00 +28°C° 0 mm 1 mps 668 mmHg 11%
14:00 +29°C° 0 mm 1 mps 667 mmHg 8%
15:00 +29°C° 0 mm 2 mps 667 mmHg 8%
16:00 +29°C° 0 mm 3 mps 667 mmHg 7%
17:00 +29°C° 0 mm 4 mps 667 mmHg 7%
18:00 +25°C° 0 mm 4 mps 666 mmHg 9%
19:00 +21°C° 0 mm 4 mps 666 mmHg 11%
20:00 +17°C° 0 mm 4 mps 666 mmHg 13%
21:00 +17°C° 0 mm 4 mps 666 mmHg 14%
22:00 +16°C° 0 mm 3 mps 666 mmHg 15%
23:00 +14°C° 0 mm 3 mps 666 mmHg 15%
Show more